GFSCGP_500_rhum_069.txt.gz
RH
7 42 64 68 100 100 100 93 83 35 33 57 69 74 78 95 100 81 55 48 41 29 18 10 11 12 17 15 14 12 12 11 11 11 10 18 43 40 32 49 70 77 75 85
8 46 78 89 97 92 94 97 62 34 45 97 91 88 96 99 94 88 52 36 32 37 24 13 6 9 18 15 12 11 12 12 11 10 11 26 33 44 42 54 69 72 80 84
12 78 88 80 88 97 100 85 81 37 89 89 82 94 90 75 94 89 58 46 31 35 24 16 8 11 19 15 12 12 14 14 12 10 21 32 36 42 42 35 48 60 81 99
22 61 82 68 90 95 90 99 94 68 92 94 99 78 92 92 94 99 91 63 42 40 33 15 11 12 20 15 12 16 16 15 13 10 28 34 38 39 34 35 55 51 74 91
23 56 93 71 78 97 96 95 80 74 78 90 68 59 56 68 77 90 87 90 75 58 42 26 12 13 19 15 16 18 19 16 13 12 8 32 37 29 26 31 30 53 67 79
20 38 88 100 100 91 100 92 79 69 67 74 78 63 46 57 78 96 93 100 88 49 41 25 11 14 20 16 18 20 23 16 14 14 13 7 15 19 27 37 45 58 82 84
16 33 67 92 98 98 96 98 98 87 82 70 73 80 46 73 96 87 91 80 98 63 45 32 13 16 21 22 15 20 24 22 16 15 22 16 9 7 10 14 30 67 72 71
10 31 53 99 98 99 96 92 97 97 99 88 95 77 50 85 98 95 99 97 93 76 53 38 19 16 20 23 16 17 22 28 21 18 18 32 25 17 9 7 13 19 34 48
7 28 47 93 98 97 100 92 100 98 98 86 94 76 94 98 97 95 93 95 93 65 55 51 22 19 22 23 20 20 25 30 24 21 24 29 42 41 24 20 15 11 12 23
14 21 39 94 100 96 100 99 98 98 97 92 96 96 99 89 99 100 97 94 92 81 66 53 46 23 18 25 29 25 32 29 25 29 28 22 26 25 26 35 26 21 16 16
25 14 44 68 93 100 100 99 97 98 98 97 96 97 96 100 100 97 100 85 74 75 57 48 54 35 20 20 31 33 39 29 26 26 30 29 40 39 28 25 28 42 34 32
28 25 51 62 97 100 98 100 96 96 97 95 100 100 97 98 99 86 100 98 53 48 54 51 39 51 26 20 23 35 38 40 30 29 35 38 44 48 40 34 27 26 41 44
24 16 13 46 83 99 100 100 99 99 99 97 96 98 100 98 98 97 100 95 87 80 72 69 64 45 47 26 22 27 37 44 43 38 39 45 51 55 48 47 47 40 30 26
10 7 6 14 43 97 99 99 100 100 98 99 92 98 98 97 98 97 100 95 100 100 90 77 77 72 88 74 62 37 39 37 33 37 47 47 54 53 56 62 48 45 47 50
9 6 5 5 10 62 100 98 99 99 100 97 100 96 97 98 97 98 97 92 91 87 96 92 86 84 78 93 100 99 95 69 58 39 45 54 61 61 64 71 68 68 44 46
11 6 8 47 66 41 83 99 98 98 99 98 100 96 98 96 99 94 99 95 99 96 98 97 97 92 76 57 57 99 98 97 92 77 71 52 55 69 80 87 82 74 53 44
8 5 12 48 81 52 55 100 100 98 100 99 100 97 98 99 96 93 96 96 87 100 98 100 100 96 94 85 68 51 51 50 48 70 88 97 87 78 70 63 75 66 59 39
4 4 14 69 100 66 44 58 84 99 100 96 98 100 90 99 99 94 72 91 100 99 95 90 94 100 100 93 97 98 93 89 85 85 89 99 88 80 83 75 87 96 88 74
2 2 3 77 100 70 56 76 76 99 99 97 100 100 93 96 98 78 83 94 100 83 74 82 89 96 100 100 100 96 99 98 92 83 71 68 71 75 79 76 84 92 80 81
4 3 2 55 92 100 92 100 100 93 100 100 99 88 97 90 90 97 100 98 91 94 83 88 68 43 66 90 91 76 52 65 70 65 66 62 58 57 56 62 71 85 85 85
54 14 3 3 76 95 100 100 99 99 88 88 100 100 100 97 95 90 90 84 78 60 48 43 42 57 46 37 30 24 20 20 30 42 47 43 36 31 30 30 25 48 73 90
96 85 34 5 14 94 95 94 99 90 100 100 100 98 96 76 82 94 97 85 62 63 67 67 57 39 34 32 31 28 28 27 25 21 20 17 15 13 11 9 9 14 32 66
100 86 94 57 11 35 99 100 100 99 92 80 97 97 74 63 57 70 62 49 26 32 37 30 26 21 19 18 18 18 18 18 18 18 16 16 16 17 16 19 15 13 18 28
77 99 100 79 60 38 95 99 95 100 99 100 100 89 86 76 45 24 22 24 27 28 21 15 12 10 10 9 8 6 6 5 5 5 5 5 4 4 6 13 25 29 33 36
100 98 100 89 100 84 75 93 91 97 90 73 61 48 30 20 21 42 33 24 20 17 16 16 14 13 11 10 9 8 8 7 6 5 5 4 4 5 5 6 7 32 57 47
100 95 83 91 100 98 93 64 42 48 79 77 79 57 48 53 33 25 24 23 21 20 19 18 19 17 14 13 12 10 8 8 8 7 6 6 6 6 23 30 13 18 40 97

GFSCGP_500_rhum_072.txt.gz
RH
8 7 7 6 8 21 57 68 65 60 100 68 51 41 32 43 66 74 64 80 66 48 40 54 29 14 14 14 16 14 12 11 12 11 9 9 16 27 35 73 90 96 97 97
9 11 8 8 11 38 54 76 86 82 99 79 45 38 49 63 62 77 67 70 52 44 44 48 28 15 14 18 17 14 11 12 13 12 10 12 30 30 39 38 59 70 88 91
15 12 10 9 10 55 49 64 91 70 99 72 58 45 46 60 62 66 71 63 69 50 39 43 34 19 17 22 18 14 13 15 16 14 10 25 31 31 42 39 52 66 66 91
16 13 10 9 20 74 62 90 91 95 95 63 84 50 49 62 57 64 92 88 90 66 38 50 37 17 21 23 19 13 16 18 17 13 9 35 45 42 39 36 30 50 54 81
16 14 11 9 36 67 65 92 86 92 92 62 100 58 59 66 53 48 72 78 77 69 59 56 63 30 21 22 19 15 18 23 16 13 11 12 36 37 32 26 21 34 66 73
21 13 10 15 22 70 78 76 88 99 100 74 81 71 71 66 47 50 74 79 72 70 61 62 52 35 21 23 19 16 20 24 20 14 14 11 9 16 35 36 42 51 67 83
18 14 11 14 19 59 74 70 89 97 98 85 63 88 54 78 91 90 96 80 70 49 48 49 34 32 21 26 21 17 18 22 25 18 15 21 15 7 10 16 49 83 84 83
24 12 12 20 20 59 91 99 98 96 84 96 79 76 63 96 94 98 91 74 65 66 41 52 43 28 19 22 25 22 17 19 28 22 20 18 27 20 13 7 12 22 54 87
20 11 13 26 32 56 96 94 100 98 97 96 78 79 77 95 94 96 88 75 58 64 59 54 64 40 20 22 32 29 18 18 27 28 22 22 22 33 38 24 16 8 9 18
26 16 12 23 50 58 97 99 99 97 100 99 82 97 95 97 93 100 88 71 69 83 86 71 61 48 24 22 31 34 26 22 25 30 28 27 20 24 23 22 33 28 20 14
34 22 16 28 86 89 90 98 94 100 100 100 94 98 85 96 98 95 92 68 68 68 62 56 63 68 51 26 23 29 33 28 30 28 28 31 29 30 27 27 24 21 36 36
33 27 38 28 79 87 85 99 98 100 100 100 96 88 79 96 90 85 94 85 76 54 65 65 61 60 56 37 27 26 33 38 35 33 30 33 34 42 39 40 38 33 22 41
41 39 24 43 41 96 73 99 100 100 100 98 100 91 98 96 98 87 90 100 82 48 52 67 62 55 60 56 46 40 37 50 40 39 43 37 36 41 50 49 46 44 40 28
38 26 22 18 26 67 88 99 99 98 94 95 93 100 97 99 99 94 91 96 87 65 72 74 77 75 86 85 68 52 53 46 41 28 30 38 42 43 45 48 52 61 55 41
39 20 18 12 7 20 71 100 99 88 91 88 94 96 98 98 98 100 91 97 100 84 82 71 91 88 88 96 97 95 96 96 95 83 76 61 55 64 69 63 59 63 71 71
39 20 15 9 6 8 26 94 99 100 98 84 96 96 99 95 98 97 98 97 99 90 96 87 92 81 82 91 87 95 98 98 100 98 93 90 79 71 75 77 70 65 68 80
30 23 14 9 8 40 22 100 98 100 99 98 95 100 96 99 98 98 97 98 98 94 93 100 100 95 93 93 85 84 84 79 85 99 98 97 96 96 88 86 87 92 96 89
15 17 14 10 8 20 76 100 96 93 100 100 97 99 98 96 97 99 94 98 98 98 98 97 99 99 99 93 92 94 89 82 77 66 62 67 73 81 94 99 98 98 96 95
6 7 8 9 6 16 90 74 77 96 100 96 99 99 91 97 98 99 100 100 99 98 97 97 97 99 98 95 92 84 90 99 83 74 70 78 84 83 95 98 92 94 95 98
4 5 5 5 4 8 86 87 39 54 78 100 97 93 98 99 96 100 100 99 98 98 98 100 100 95 84 84 78 84 98 99 99 99 92 88 85 75 70 65 61 63 70 83
5 3 3 2 2 5 86 88 99 88 81 93 97 96 98 97 100 99 98 98 99 100 98 98 97 91 79 76 76 61 53 75 95 91 80 55 42 42 41 34 30 34 36 41
56 38 30 9 2 2 76 98 89 100 100 89 100 98 100 100 100 100 98 99 99 99 100 98 82 68 55 52 53 52 51 48 41 40 44 35 27 24 23 23 21 18 16 14
100 100 80 47 42 49 23 82 100 96 99 100 100 100 99 99 100 98 83 73 94 89 88 83 74 60 46 48 47 48 53 48 34 27 26 27 28 29 29 28 25 22 22 22
100 100 98 100 95 20 8 62 96 100 100 98 100 100 100 100 100 96 79 62 49 35 36 39 40 24 15 16 21 20 15 12 10 8 8 6 6 5 5 5 4 5 5 5
100 100 98 96 98 86 39 36 100 100 100 100 100 95 100 92 87 84 74 53 42 36 21 11 20 24 22 16 13 11 10 8 7 7 7 6 6 5 5 4 4 4 4 4
87 92 100 96 93 96 92 82 95 100 100 100 100 100 92 85 77 67 63 47 22 18 32 32 24 18 15 14 14 14 14 11 10 10 9 8 8 7 7 6 5 5 4 5

GFSCGP_500_rhum_075.txt.gz
RH
17 15 13 10 9 7 5 4 5 7 33 81 65 47 35 69 42 24 29 34 50 76 74 68 60 40 34 14 18 20 15 13 11 11 12 11 9 14 23 42 96 96 97 97
19 17 14 11 10 9 7 6 6 21 59 70 72 39 42 64 34 27 28 37 66 84 70 62 72 48 27 16 18 21 16 13 12 14 15 12 8 15 35 36 97 97 97 97
18 17 15 13 12 10 8 7 13 51 78 72 53 49 60 52 37 37 40 44 91 89 60 65 58 58 24 15 22 22 16 13 16 18 13 10 18 26 38 41 74 95 96 96
19 19 17 15 14 11 8 10 21 55 68 54 62 34 55 40 50 46 52 61 75 95 68 63 52 65 52 20 29 21 15 16 19 16 12 10 34 30 38 43 40 42 62 83
23 21 18 16 15 12 10 12 45 66 73 55 78 59 57 40 45 56 73 71 68 65 62 65 86 81 82 25 29 21 16 18 20 15 13 11 24 33 43 46 41 33 46 66
24 20 19 16 14 13 12 12 67 90 98 64 71 79 44 51 53 65 83 84 76 71 71 68 96 100 100 37 29 22 18 20 23 19 16 15 8 20 33 32 32 37 26 38
26 24 21 17 14 14 14 22 75 76 88 57 80 84 51 70 65 69 91 98 94 89 77 58 80 93 100 62 24 28 20 21 22 23 18 16 19 10 12 14 25 42 38 38
29 26 23 20 17 15 15 19 72 74 61 62 92 77 58 76 99 98 100 97 93 86 79 62 73 76 99 91 26 36 24 20 21 25 22 21 18 26 15 6 11 26 57 74
33 31 24 20 16 15 26 46 99 100 83 75 91 94 74 88 96 96 90 90 88 91 90 87 70 64 69 65 27 35 36 27 19 22 28 23 22 26 38 28 12 7 12 24
35 34 28 19 15 19 31 62 89 100 94 90 99 99 66 75 90 78 68 68 88 98 94 93 74 82 99 57 26 31 39 35 23 22 31 29 28 26 27 26 30 30 19 14
38 37 35 26 17 21 46 70 97 98 94 100 99 92 71 70 62 75 67 76 91 100 92 89 89 98 94 57 26 29 34 37 36 24 32 32 31 27 29 27 26 24 23 32
48 40 39 32 21 28 52 59 100 100 98 100 84 97 78 80 78 67 64 74 97 96 81 86 88 96 99 67 52 36 28 33 29 25 24 26 28 31 36 39 34 33 32 24
64 49 44 39 31 32 79 95 100 96 97 95 93 99 79 86 94 89 76 83 98 100 100 91 90 91 80 65 71 70 45 37 32 38 28 27 27 25 27 33 38 37 31 30
74 69 57 52 38 39 59 94 100 100 99 96 86 99 100 98 92 100 85 90 83 78 99 94 91 87 76 80 94 86 80 75 78 58 54 52 47 46 40 38 43 49 47 49
85 44 35 32 36 29 30 83 96 100 100 98 98 97 98 98 98 99 100 97 92 74 87 87 87 83 84 94 91 98 98 94 94 94 92 86 87 79 71 66 66 66 64 58
58 39 32 26 20 19 11 18 77 93 99 90 97 88 97 98 99 98 98 100 98 90 80 76 87 95 94 95 98 97 98 98 98 99 98 97 97 91 92 80 77 86 81 88
29 29 38 29 23 18 10 8 15 84 94 98 77 86 92 98 98 97 98 99 99 100 98 90 95 97 91 96 86 74 86 87 92 97 99 98 98 98 96 94 82 87 88 95
34 48 57 34 19 17 14 13 15 46 99 100 95 90 97 82 98 94 98 98 98 99 94 97 98 90 100 92 96 90 90 95 86 79 80 88 93 96 99 99 98 99 99 99
35 57 75 37 23 15 13 10 53 60 100 100 100 95 95 95 98 98 93 96 97 96 97 98 95 100 98 99 100 100 96 92 91 93 84 75 85 95 90 71 79 98 100 100
74 69 52 24 17 13 8 12 39 56 94 100 100 99 100 99 100 98 100 96 96 98 98 98 98 98 99 99 98 98 90 81 80 77 74 75 90 94 86 91 100 100 100 100
44 34 18 9 13 17 5 7 36 67 56 94 96 100 100 100 97 100 100 100 99 98 99 98 98 98 96 95 91 87 79 73 69 64 63 62 64 84 90 85 79 73 70 66
11 6 7 6 9 9 8 5 11 90 62 73 98 96 98 97 98 93 98 99 100 100 99 99 98 96 96 98 98 95 81 68 59 56 56 56 52 46 43 42 49 66 60 41
29 14 17 18 11 5 6 5 6 53 72 93 90 99 100 100 99 100 98 100 98 96 98 99 99 97 97 94 90 89 74 62 49 52 56 56 55 46 35 22 17 14 12 10
72 63 64 72 17 8 8 6 4 41 75 100 99 100 100 100 100 100 100 100 97 97 98 96 86 64 56 49 56 69 55 26 18 18 20 20 17 14 11 8 6 6 6 6
97 94 87 81 65 64 52 26 12 76 92 92 99 100 100 100 100 100 100 100 90 84 83 76 58 46 36 33 24 13 10 18 20 17 14 12 9 8 7 7 7 7 7 7
88 79 88 72 75 84 98 70 43 96 100 100 100 100 100 99 92 90 88 80 78 72 58 52 52 47 43 38 31 18 22 19 15 13 12 13 12 11 11 10 10 9 8 8

GFSCGP_500_rhum_078.txt.gz
RH
25 22 20 19 17 16 13 11 11 9 8 8 6 5 4 7 37 33 41 42 28 24 34 70 81 96 72 51 24 12 14 17 16 13 10 11 13 12 10 10 20 68 96 94
23 23 21 21 19 16 14 12 12 10 9 9 7 4 5 14 43 42 50 49 30 24 41 55 70 94 80 51 18 14 19 19 16 12 13 14 12 10 8 14 31 58 97 95
26 24 23 22 19 15 13 14 12 12 10 8 6 4 8 34 54 46 64 55 25 29 35 64 72 94 76 45 16 16 22 19 14 14 18 12 11 28 26 27 33 96 97 97
78 30 25 22 19 17 16 15 14 12 10 7 18 7 26 48 56 57 69 54 28 30 50 75 92 93 70 38 22 18 25 19 15 17 14 12 10 34 31 35 38 86 97 97
42 28 26 23 22 19 16 15 13 10 8 6 21 60 30 65 74 60 60 32 32 44 70 94 95 97 57 38 28 26 26 18 18 20 15 12 10 27 32 39 44 40 46 61
32 31 28 26 22 20 18 15 12 10 8 6 50 68 35 78 86 53 51 50 62 74 92 91 97 98 72 41 41 30 27 18 19 22 18 14 14 10 27 34 34 36 34 35
39 33 29 26 24 22 18 14 13 11 8 18 52 64 63 84 94 44 65 54 88 95 98 94 96 92 64 54 53 30 29 20 20 22 21 16 12 13 9 16 18 29 37 31
37 33 30 29 26 23 19 17 15 14 17 36 53 66 85 93 84 48 45 61 92 89 98 99 95 72 63 69 60 33 32 24 20 21 24 20 17 15 14 8 9 14 27 44
36 35 33 30 26 23 20 17 21 25 25 60 74 71 72 91 65 53 45 58 82 86 99 96 98 97 75 71 63 55 36 35 25 20 21 25 20 16 16 18 12 7 9 21
41 40 35 32 29 24 18 20 30 38 59 88 88 83 72 72 66 52 56 91 90 94 100 94 90 100 82 66 64 28 31 30 34 24 19 23 22 20 13 20 22 22 20 12
46 40 37 35 36 28 22 30 38 51 73 93 92 84 78 71 68 61 82 97 89 99 98 92 95 96 97 65 44 34 45 24 32 27 21 22 22 21 22 21 18 17 20 22
43 39 38 45 39 39 27 26 52 70 78 100 96 78 86 86 82 67 83 95 92 95 96 96 99 99 86 64 59 50 63 26 21 26 31 28 28 24 23 24 26 27 16 15
53 42 45 48 59 43 36 70 91 88 93 97 90 79 90 99 97 76 80 89 86 90 98 100 97 97 84 72 71 65 65 57 46 34 35 35 34 36 34 32 32 35 39 35
98 73 97 80 68 48 44 60 96 99 100 97 95 93 96 98 97 90 79 76 88 80 94 98 97 96 97 92 73 77 82 87 90 79 69 52 52 55 53 47 41 40 43 49
100 100 100 100 82 65 51 49 66 98 85 100 100 86 98 99 99 99 90 86 83 76 84 98 98 97 98 86 87 95 96 97 95 96 89 99 96 92 79 65 60 52 47 56
96 96 100 100 55 36 37 38 46 87 91 88 100 78 95 98 95 98 100 92 84 84 80 96 98 99 100 100 99 98 99 96 97 98 97 98 96 98 96 96 88 82 75 82
100 95 83 67 50 36 34 21 20 17 54 87 92 82 95 96 98 97 99 99 99 79 93 95 94 97 97 97 97 97 98 98 97 98 98 96 95 99 99 100 100 98 97 93
99 99 94 54 39 48 34 28 18 10 6 15 85 88 93 98 98 98 98 99 99 99 92 92 95 96 93 95 96 97 98 98 96 96 83 80 82 86 92 96 98 98 99 98
66 67 69 66 48 58 37 30 19 11 19 24 74 100 99 98 95 91 90 98 98 98 98 98 80 95 98 97 86 83 78 100 100 94 90 88 89 89 89 86 81 87 92 94
58 48 42 47 54 62 44 20 15 12 39 100 97 100 100 96 90 100 99 99 96 95 97 97 98 100 99 100 100 100 99 100 90 90 100 99 86 75 72 68 69 89 100 100
55 51 48 51 58 57 28 17 13 10 44 87 88 98 96 100 99 100 99 99 98 91 94 93 94 97 98 98 99 98 100 100 100 100 98 92 72 62 58 57 58 59 60 69
60 63 62 63 60 44 31 16 13 9 14 70 61 100 97 100 100 100 100 100 100 100 100 98 96 92 92 97 97 98 97 97 98 97 94 82 67 59 59 57 56 57 55 53
54 45 36 29 19 19 21 18 13 8 7 68 69 93 100 100 100 100 100 100 99 98 98 99 99 99 99 98 99 99 99 98 96 90 85 76 72 64 46 30 31 28 20 16
92 69 31 20 46 33 17 12 7 5 5 28 66 100 100 100 100 100 100 100 100 99 100 100 100 100 99 98 90 81 72 48 29 23 23 19 18 18 18 18 16 14 10 8
81 61 63 28 18 47 62 37 12 4 4 6 69 100 100 100 100 100 100 100 100 100 100 96 95 96 95 95 96 92 82 62 53 52 46 35 21 20 17 15 13 12 11 11
99 79 62 62 57 64 75 80 70 28 10 55 60 83 100 100 100 100 100 100 99 100 99 89 76 70 70 64 55 51 39 32 28 27 26 24 21 19 16 14 15 15 13 12

GFSCGP_500_rhum_081.txt.gz
RH
42 61 70 31 30 20 18 16 16 16 14 13 14 14 12 12 9 9 5 6 16 26 28 37 36 38 96 72 76 71 69 25 13 16 15 13 12 14 15 13 11 9 16 27
61 46 43 39 27 19 19 19 18 16 13 13 13 13 11 11 10 9 5 5 19 34 36 41 26 41 95 82 77 80 71 20 14 17 15 14 16 15 12 12 8 7 25 47
98 86 84 64 25 20 22 21 19 16 14 13 14 12 11 10 9 8 8 9 33 38 40 40 25 36 73 82 85 82 68 13 15 18 15 17 15 11 20 33 23 25 41 74
82 42 47 38 29 24 24 22 18 15 15 16 15 10 9 10 10 11 16 27 50 45 46 35 27 44 65 78 95 81 48 13 18 16 19 17 13 11 32 38 37 40 92 96
94 91 60 50 48 71 52 22 18 17 16 15 13 11 9 13 29 42 40 56 67 54 51 26 45 72 85 91 87 75 23 16 20 17 21 17 15 11 30 40 42 43 49 94
100 94 98 95 65 50 37 23 21 18 17 14 14 12 20 28 49 55 62 79 67 66 55 28 55 93 89 98 77 51 16 20 19 19 22 19 16 14 11 32 34 34 35 33
100 100 80 67 42 30 28 25 22 20 16 14 11 10 53 54 61 81 75 58 56 68 34 50 99 92 94 82 57 47 21 21 20 20 22 20 17 14 13 12 21 26 25 24
82 97 91 63 38 32 29 27 24 19 16 13 13 27 59 61 58 67 69 61 54 35 40 82 97 98 98 87 72 58 30 21 21 20 22 20 18 15 12 13 8 13 19 31
63 74 73 75 54 33 31 29 26 22 17 13 24 31 66 68 64 67 87 52 52 65 82 95 100 93 89 97 83 67 42 21 22 20 20 20 20 16 13 13 15 10 8 14
55 56 58 47 37 36 34 28 25 22 20 16 28 66 80 76 63 72 75 48 79 96 100 99 98 95 99 100 86 68 55 20 22 25 22 19 22 17 13 11 15 19 19 17
61 58 57 48 43 40 36 32 24 21 19 27 54 80 99 87 65 70 74 50 77 96 97 97 100 98 96 100 99 73 50 20 19 24 24 20 20 26 21 19 18 16 15 16
84 70 59 60 55 50 54 43 31 24 42 72 72 88 96 99 89 82 83 62 55 76 91 98 97 97 92 100 99 86 52 58 67 21 22 29 25 27 30 26 26 27 29 28
98 83 79 58 50 58 74 86 50 32 37 67 84 92 100 96 100 99 90 61 55 96 100 100 96 98 97 96 100 90 53 74 72 34 24 33 38 34 34 36 30 31 32 35
90 92 72 64 54 82 84 82 52 47 73 71 100 89 99 94 99 100 96 75 86 96 100 97 95 96 100 100 87 64 66 76 81 72 60 49 44 45 42 48 44 38 36 39
82 99 98 89 73 74 87 74 72 46 55 91 100 78 98 93 98 99 98 80 86 97 98 98 96 95 94 98 98 97 93 96 95 99 93 90 79 69 55 53 55 53 48 42
100 100 100 100 100 94 92 83 65 53 42 68 80 92 79 90 98 98 98 95 85 93 96 100 100 94 98 97 92 98 98 97 93 93 96 97 97 96 95 90 91 91 86 76
100 100 98 98 99 100 84 44 42 37 41 57 88 84 83 88 98 98 98 99 98 74 85 91 97 91 100 96 97 98 94 95 96 96 97 96 97 96 84 94 97 99 100 98
100 93 95 72 66 91 63 49 39 31 22 17 14 48 62 78 95 98 96 97 94 96 78 96 98 94 94 97 95 90 87 90 94 89 94 99 91 94 92 91 92 97 96 92
98 100 96 72 73 85 59 46 48 36 20 21 34 11 15 95 97 99 98 95 98 99 98 98 96 96 97 98 92 96 98 95 90 96 98 96 93 90 85 86 88 89 90 90
84 71 73 69 68 61 56 52 61 49 19 15 18 51 67 100 98 100 97 95 94 94 99 100 100 87 86 95 97 98 95 98 97 96 98 90 97 91 90 93 89 83 76 73
69 56 48 46 42 40 35 48 62 42 24 17 26 69 68 90 100 100 100 99 99 99 96 96 97 99 98 82 98 100 98 98 100 92 91 89 100 98 98 98 90 73 64 59
46 46 41 38 31 29 35 58 60 42 21 12 22 62 80 100 100 99 100 98 96 97 99 95 97 98 97 98 98 99 99 98 100 100 99 99 98 98 98 99 96 92 78 57
64 51 45 42 35 38 50 51 44 30 20 12 12 58 74 100 100 100 100 100 100 100 99 99 96 97 98 100 98 98 97 98 99 98 100 98 98 98 94 89 88 76 58 43
96 67 52 34 40 44 30 24 25 21 15 12 8 77 100 99 100 100 100 99 99 100 99 99 98 98 98 99 98 97 97 98 98 99 95 92 79 53 45 52 47 40 24 15
80 83 64 44 41 38 43 44 27 18 14 6 6 51 100 100 100 100 100 100 100 100 100 100 99 100 100 99 99 100 99 98 97 97 96 98 81 63 45 32 31 29 22 18
88 96 57 34 52 69 72 73 74 51 23 12 9 99 100 100 100 99 100 100 100 100 100 100 100 99 97 85 73 63 65 73 74 68 58 53 50 36 24 23 23 23 21 19

GFSCGP_500_rhum_084.txt.gz
RH
99 93 95 100 98 84 82 74 57 56 20 17 14 12 11 10 10 9 9 10 10 9 6 11 11 21 24 32 35 78 88 66 57 64 32 17 16 13 14 16 14 13 12 10
89 91 89 75 91 98 96 70 48 61 33 18 17 15 14 12 11 11 12 10 10 9 7 8 17 22 30 36 42 94 77 69 61 66 22 18 16 14 17 14 11 9 8 7
93 98 100 76 18 32 44 47 24 21 20 20 18 16 14 12 13 12 11 10 9 8 7 8 17 24 37 32 63 93 85 64 65 64 19 18 15 18 15 10 19 34 26 15
92 100 100 99 43 54 88 82 54 23 22 21 18 16 15 16 15 12 9 8 8 8 8 17 32 30 38 28 65 86 76 62 69 55 19 17 17 17 13 18 46 45 40 47
88 97 98 98 92 91 67 55 61 44 26 21 18 17 16 16 12 10 8 7 9 13 17 25 46 40 40 28 59 81 70 68 78 30 20 16 19 17 13 24 47 50 41 66
64 100 98 100 80 84 57 52 59 76 39 20 19 17 17 13 12 8 9 11 21 41 38 46 53 45 32 39 62 70 74 80 77 19 20 16 21 19 15 14 34 44 41 43
57 76 100 98 98 94 96 94 76 68 41 23 20 17 15 12 12 14 20 37 54 69 77 68 53 46 28 49 73 76 86 88 35 20 18 18 23 20 17 11 16 25 29 32
60 61 73 100 100 99 78 62 42 38 47 29 20 17 16 20 27 36 46 58 68 70 75 64 40 31 60 75 81 84 89 65 25 21 18 19 23 22 20 19 10 10 17 28
66 61 58 68 100 89 77 69 43 32 28 26 22 18 17 16 45 62 69 63 69 61 69 74 49 80 75 90 100 96 81 71 37 22 18 19 22 24 19 20 25 16 8 11
82 68 67 69 92 100 98 85 62 37 33 29 62 23 37 59 64 79 74 62 92 63 67 56 97 98 92 99 97 90 83 85 60 42 20 19 20 23 21 20 26 26 22 16
97 85 84 92 90 100 98 96 88 53 29 39 33 49 49 73 90 74 70 79 96 56 51 52 89 100 95 98 99 100 89 90 66 46 28 21 20 20 23 20 21 24 22 19
94 89 84 87 100 100 99 92 64 49 57 39 43 49 45 79 93 91 75 89 89 53 59 75 95 87 98 96 96 97 95 87 68 78 28 27 28 20 24 26 23 24 28 29
86 82 98 94 83 94 96 94 54 60 56 41 64 86 77 99 92 100 99 81 91 54 66 78 98 98 98 96 92 95 87 81 74 82 65 32 31 30 26 30 31 27 28 33
100 84 96 100 100 100 100 81 74 72 62 67 84 83 50 66 82 99 100 83 90 71 56 68 88 97 99 95 99 84 88 85 71 80 86 64 28 36 41 34 35 37 31 31
100 84 88 88 83 91 79 81 77 68 60 51 96 89 79 64 76 96 97 100 98 85 59 58 73 86 93 97 89 99 92 76 65 94 100 81 42 33 38 38 39 44 44 38
100 98 93 79 98 85 78 65 56 63 59 56 56 93 98 76 82 96 96 99 99 91 63 62 77 97 93 95 100 94 90 86 96 100 98 94 85 71 64 61 61 51 52 54
100 98 98 100 100 100 100 100 89 72 59 51 43 40 72 83 77 93 93 97 99 89 84 97 98 98 97 99 100 93 100 98 99 95 98 96 88 92 98 99 97 97 95 94
100 100 96 100 100 100 100 100 84 43 40 35 28 31 44 76 70 75 91 98 98 99 96 98 98 97 92 98 96 95 97 98 93 96 97 97 98 97 97 97 98 80 84 92
99 100 100 96 97 100 94 84 59 48 44 37 25 18 14 20 29 58 99 99 99 98 98 99 93 98 90 96 87 98 100 100 94 97 96 97 96 94 98 100 95 88 86 83
98 100 93 77 92 96 84 89 72 50 54 44 28 17 24 19 40 97 100 100 100 98 98 95 99 88 89 100 75 92 98 96 99 99 97 100 97 100 98 97 96 91 86 87
100 81 73 61 58 53 62 64 44 52 50 45 27 21 15 45 86 93 100 98 100 100 98 98 96 97 99 96 98 95 90 98 97 100 98 97 98 98 98 98 96 97 96 96
88 75 64 50 41 44 48 36 37 45 51 50 33 16 20 59 90 98 99 96 98 97 98 98 98 97 97 98 100 94 94 81 93 93 100 98 96 98 98 98 98 97 99 97
81 75 82 67 44 32 28 26 23 43 55 52 24 12 15 52 98 99 99 100 100 100 99 100 99 96 97 99 99 95 99 98 98 100 100 100 99 99 97 97 100 100 100 98
78 63 44 56 33 28 24 19 18 52 54 36 20 10 9 53 86 92 89 96 95 99 100 100 100 99 99 100 99 98 99 98 97 98 98 98 98 98 99 100 100 99 96 90
99 90 61 35 26 26 22 17 33 31 26 17 9 9 34 88 95 100 100 100 100 100 99 99 99 99 99 99 99 99 99 99 99 98 99 100 100 98 98 98 99 98 96 88
86 80 73 62 28 20 20 32 31 39 29 21 10 8 38 100 100 100 100 100 100 100 100 100 100 99 99 100 99 98 99 99 91 83 85 82 73 69 68 67 64 60 61 53